Lake Mead Weather Center

Moon Phase Calendar



Lake Mead Water Level
Online Cameras

 


      

Current Conditions in Meadview
4/19/2024 3:37:02 PM

89°F
Feels Like 85
Clouds
Humidity
10%
Pressure
29.68"
Wind
13.3 mph (SW)
Dew Point
26°F
UV Index
3/10 (Moderate)
Visibility
6 mi

Hourly Forecast

Date & Time Fri, Apr 19
3:00 PM
Fri, Apr 19
4:00 PM
Fri, Apr 19
5:00 PM
Fri, Apr 19
6:00 PM
Fri, Apr 19
7:00 PM
Fri, Apr 19
8:00 PM
Fri, Apr 19
9:00 PM
Fri, Apr 19
10:00 PM
Fri, Apr 19
11:00 PM
Sat, Apr 20
12:00 AM
Sat, Apr 20
1:00 AM
Sat, Apr 20
2:00 AM
Sat, Apr 20
3:00 AM
Sat, Apr 20
4:00 AM
Sat, Apr 20
5:00 AM
Sat, Apr 20
6:00 AM
Sat, Apr 20
7:00 AM
Sat, Apr 20
8:00 AM
Sat, Apr 20
9:00 AM
Sat, Apr 20
10:00 AM
Sat, Apr 20
11:00 AM
Sat, Apr 20
12:00 PM
Sat, Apr 20
1:00 PM
Sat, Apr 20
2:00 PM
Sat, Apr 20
3:00 PM
Sat, Apr 20
4:00 PM
Sat, Apr 20
5:00 PM
Sat, Apr 20
6:00 PM
Sat, Apr 20
7:00 PM
Sat, Apr 20
8:00 PM
Sat, Apr 20
9:00 PM
Sat, Apr 20
10:00 PM
Sat, Apr 20
11:00 PM
Sun, Apr 21
12:00 AM
Sun, Apr 21
1:00 AM
Sun, Apr 21
2:00 AM
Sun, Apr 21
3:00 AM
Sun, Apr 21
4:00 AM
Sun, Apr 21
5:00 AM
Sun, Apr 21
6:00 AM
Sun, Apr 21
7:00 AM
Sun, Apr 21
8:00 AM
Sun, Apr 21
9:00 AM
Sun, Apr 21
10:00 AM
Sun, Apr 21
11:00 AM
Sun, Apr 21
12:00 PM
Sun, Apr 21
1:00 PM
Sun, Apr 21
2:00 PM
Condition
Clouds

Clouds

Clouds

Clouds

Clouds

Clear

Clouds

Clouds

Clouds

Clear

Clear

Clear

Clear

Clear

Clear

Clear

Clear

Clear

Clear

Clear

Clear

Clear

Clear

Clear

Clouds

Clouds

Clouds

Clear

Clouds

Clouds

Clouds

Clouds

Clouds

Clear

Clear

Clear

Clear

Clear

Clear

Clear

Clear

Clear

Clear

Clear

Clear

Clear

Clear

Clear
Temperature 89°F89°F89°F88°F86°F83°F80°F79°F78°F76°F75°F74°F72°F72°F71°F70°F74°F79°F81°F83°F86°F88°F89°F91°F91°F91°F91°F90°F87°F84°F83°F81°F80°F79°F78°F77°F76°F74°F73°F73°F77°F82°F84°F87°F89°F91°F92°F93°F
Feels Like 85°F85°F85°F85°F83°F80°F78°F79°F76°F74°F73°F72°F70°F70°F68°F68°F72°F77°F79°F81°F82°F84°F85°F86°F87°F87°F87°F86°F84°F81°F80°F79°F79°F79°F76°F75°F74°F73°F72°F71°F75°F80°F82°F83°F85°F87°F88°F89°F
Cloudiness 37%35%34%26%17%9%14%26%23%2%1%1%1%1%1%0%0%0%0%0%1%2%7%9%26%32%30%5%39%23%18%14%12%0%0%0%0%0%0%0%0%0%0%0%0%0%0%2%
Visibility 6 mi6 mi6 mi6 mi6 mi6 mi6 mi6 mi6 mi6 mi6 mi6 mi6 mi6 mi6 mi6 mi6 mi6 mi6 mi6 mi6 mi6 mi6 mi6 mi6 mi6 mi6 mi6 mi6 mi6 mi6 mi6 mi6 mi6 mi6 mi6 mi6 mi6 mi6 mi6 mi6 mi6 mi6 mi6 mi6 mi6 mi6 mi6 mi
Precipitation 0%0%0%0%0%0%0%0%0%0%0%0%0%0%0%0%0%0%0%0%0%0%0%0%0%0%0%0%0%0%0%0%0%0%0%0%0%0%0%0%0%0%0%0%0%0%0%0%
Humidity 10%10%10%11%13%15%16%16%17%18%19%20%22%22%23%24%23%18%17%16%15%14%13%13%13%13%13%14%16%17%18%19%20%21%22%23%24%25%26%27%25%19%18%16%15%14%13%12%
Dew Point 26°F26°F26°F28°F30°F31°F28°F27°F27°F27°F28°F28°F29°F29°F29°F29°F32°F29°F31°F31°F31°F31°F31°F31°F31°F32°F32°F32°F33°F32°F32°F33°F33°F33°F34°F34°F34°F34°F34°F34°F36°F34°F34°F34°F34°F33°F32°F32°F
Pressure 29.68"29.68"29.68"29.68"29.68"29.71"29.74"29.74"29.77"29.77"29.77"29.77"29.77"29.8"29.8"29.83"29.85"29.88"29.88"29.88"29.88"29.88"29.85"29.83"29.83"29.8"29.8"29.8"29.83"29.83"29.85"29.85"29.88"29.88"29.88"29.88"29.88"29.88"29.88"29.91"29.91"29.91"29.91"29.91"29.88"29.85"29.83"29.8"
Wind Speed 11.4 mph13.3 mph12.4 mph9.5 mph7.4 mph8.8 mph8.3 mph8.4 mph8 mph6.5 mph5 mph4 mph3 mph2.9 mph2.7 mph1.9 mph1.7 mph2.2 mph3.1 mph3.2 mph4 mph5.6 mph6.6 mph7.3 mph8 mph7.9 mph6.9 mph5.9 mph3.9 mph2.3 mph4.5 mph5.4 mph5.6 mph4.9 mph5.1 mph5.2 mph4.3 mph3.3 mph2.9 mph2.8 mph3.1 mph1.4 mph0.7 mph2.1 mph2.7 mph3.1 mph3.8 mph5.3 mph
Wind
Direction
233°
SW
227°
SW
221°
SW
208°
SSW
186°
S
185°
S
190°
S
185°
S
175°
S
160°
SSE
149°
SSE
158°
SSE
169°
S
161°
SSE
168°
SSE
199°
SSW
209°
SSW
245°
WSW
268°
W
276°
W
279°
W
282°
WNW
289°
WNW
293°
WNW
293°
WNW
286°
WNW
276°
W
271°
W
267°
W
219°
SW
171°
S
169°
S
171°
S
175°
S
162°
SSE
145°
SE
141°
SE
139°
SE
138°
SE
143°
SE
148°
SSE
146°
SE
316°
NW
306°
NW
310°
NW
307°
NW
290°
WNW
283°
WNW

Daily Forecast

Date High Low Precip. Humidity
Today
Apr 19

Clouds
89 °F
67 °F
0%
12%
Saturday
Apr 20

Clear
91 °F
70 °F
0%
14%
Sunday
Apr 21

Clear
94 °F
73 °F
0%
14%
Monday
Apr 22

Clear
94 °F
74 °F
0%
10%
Tuesday
Apr 23

Clear
91 °F
72 °F
0%
15%
Wednesday
Apr 24

Clear
86 °F
68 °F
0%
19%
Thursday
Apr 25

Clouds
82 °F
62 °F
0%
25%
Friday
Apr 26

Rain
74 °F
61 °F
100%
27%
Saturday
Apr 27

Rain
77 °F
57 °F
100%
22%
Sunday
Apr 28

Clear
83 °F
65 °F
0%
16%
Monday
Apr 29

Clear
88 °F
68 °F
0%
17%
Tuesday
Apr 30

Clear
92 °F
70 °F
0%
12%
Wednesday
May 1

Clouds
93 °F
72 °F
0%
10%
Thursday
May 2

Clouds
90 °F
71 °F
0%
9%
Friday
May 3

Clouds
80 °F
64 °F
0%
14%
Saturday
May 4

Clear
76 °F
59 °F
0%
23%

Temperature 8-14 Day Outlook



Precipitation 8-14 Day Outlook






About Us
Contact Us
Site Map
Search Site
Advertise With Us
   
Mead.USLakes.info
THE LAKE MEAD WEBSITE

Copyright 2024, Lakes Online
Privacy    |    Legal